Location: Gleizolles
(44.4833°N, 6.7667°E)
Time: 16:54:13
(UTC+00:00)

Explorer 7 - Pass Details

Date: 22 June 2024
Orbit: 465 x 619 km, 50.3° (Epoch: 12 July)

Event Time Altitude Azimuth Distance (km) Brightness Sun altitude
Rises 13:33:19 0° 288° (WNW) 2,597 10.5 58.0°
Reaches altitude 10° 13:35:42 10° 298° (WNW) 1,688 9.7 57.6°
Maximum altitude 13:39:11 33° 4° (N) 827 7.9 57.1°
Drops below altitude 10° 13:42:33 10° 70° (ENE) 1,635 9.0 56.6°
Sets 13:44:50 0° 81° (E) 2,501 9.9 56.2°
